Вернуться в каталог

STARLINK-3060

АктивенСвязьVLEO
NORAD 49155·PAYLOAD·🇺🇸 United States

Запущен Sep 14, 2021 с Vandenberg Space Force Base

Loading…

Ближайшие Пролёты (ближайшие 24 часа)

TLE

СвежийSource: CelesTrak SupGP

Эпоха: Sep 15, 2026, 02:29 UTC

1 49155C 21082AB  26258.10395833  .00033988  00000+0  28481-2 0  2585
2 49155  70.0003 136.8685 0002791 274.6462 134.6161 14.98316878    11

Отслеживайте STARLINK-3060 в реальном времени с AllMySat

Download on the App Store